Weather History for KGKY - December, 2013

Change the Weather History Date:

Wednesday, December 18, 2013

  Actual Average (WUND) Record (WUND)
Temperature  
Mean Temperature 51 °F -  
Max Temperature 69 °F - - (-1)
Min Temperature 33 °F - - (-1)
Degree Days  
Heating Degree Days 14    
Growing Degree Days 1 (Base 50)    
Moisture  
Dew Point 40 °F    
Average Humidity 66    
Maximum Humidity 96    
Minimum Humidity 33    
Precipitation  
Precipitation 0.00 in - - ()
Sea Level Pressure  
Sea Level Pressure 30.14 in    
Wind  
Wind Speed 5 mph (SSE)    
Max Wind Speed 15 mph    
Max Gust Speed 22 mph    
Visibility 10 miles    
Events      
Averages and records for this station are not official NWS values.
T = Trace of Precipitation, MM = Missing Value Source: NWS Daily Summary

Daily Weather History Graph

Daily Weather History Graph

Search for Another Location

Airport or City:

Trip Planner

Search our weather history database for the weather conditions in past years. The results will help you decide how hot, cold, wet, or windy it might be!

Date:

Astronomy

Dec. 18, 2013 Rise Set
Actual Time 7:25 AM CST 5:25 PM CST
Civil Twilight 6:57 AM CST 5:52 PM CST
Nautical Twilight 6:26 AM CST 6:23 PM CST
Astronomical Twilight 5:56 AM CST 6:53 PM CST
Moon 6:53 PM CST (12/18) 8:09 AM CST (12/18)
Length of Visible Light 10h 54m
Length of Day
10h 00m
Full, 98% of the Moon is Illuminated
Dec 18
Full
Dec 25
Last Quarter
Jan 1
New
Jan 7
First Quarter
Jan 15
Full

Hourly Weather History & Observations

Time (CST) Temp. Windchill Dew Point Humidity Pressure Visibility Wind Dir Wind Speed Gust Speed Precip Events Conditions
12:53 AM 36.0 °F - 34.0 °F 93% 30.25 in 10.0 mi Calm Calm - N/A   Clear
1:53 AM 35.1 °F - 33.1 °F 92% 30.24 in 10.0 mi Calm Calm - N/A   Clear
2:53 AM 33.1 °F - 32.0 °F 96% 30.24 in 10.0 mi Calm Calm - N/A   Clear
3:53 AM 33.1 °F - 32.0 °F 96% 30.23 in 10.0 mi Calm Calm - N/A   Clear
4:53 AM 33.1 °F - 30.9 °F 92% 30.23 in 10.0 mi Calm Calm - N/A   Clear
5:53 AM 33.1 °F - 30.9 °F 92% 30.23 in 10.0 mi Calm Calm - N/A   Clear
6:53 AM 34.0 °F - 33.1 °F 96% 30.23 in 10.0 mi Calm Calm - N/A   Clear
7:53 AM 36.0 °F - 34.0 °F 93% 30.24 in 10.0 mi Calm Calm - N/A   Clear
8:53 AM 46.0 °F 43.1 °F 37.9 °F 73% 30.25 in 10.0 mi South 5.8 mph - N/A   Clear
9:53 AM 55.0 °F - 39.9 °F 57% 30.25 in 10.0 mi South 5.8 mph - N/A   Clear
10:53 AM 63.0 °F - 39.9 °F 43% 30.23 in 10.0 mi South 9.2 mph - N/A   Clear
11:53 AM 66.0 °F - 39.9 °F 38% 30.19 in 10.0 mi SSE 10.4 mph - N/A   Clear
12:53 PM 69.1 °F - 39.0 °F 33% 30.14 in 10.0 mi SSE 12.7 mph - N/A   Clear
1:53 PM 69.1 °F - 41.0 °F 36% 30.10 in 10.0 mi SSE 12.7 mph 19.6 mph N/A   Clear
2:53 PM 69.1 °F - 43.0 °F 39% 30.07 in 10.0 mi SSE 12.7 mph 20.7 mph N/A   Clear
3:53 PM 68.0 °F - 44.1 °F 42% 30.05 in 10.0 mi SSE 13.8 mph 19.6 mph N/A   Clear
4:53 PM 66.9 °F - 45.0 °F 45% 30.04 in 10.0 mi SSE 15.0 mph 21.9 mph N/A   Clear
5:53 PM 63.0 °F - 46.0 °F 54% 30.04 in 10.0 mi SSE 12.7 mph - N/A   Clear
6:53 PM 61.0 °F - 46.9 °F 60% 30.03 in 10.0 mi SSE 12.7 mph - N/A   Clear
7:53 PM 60.1 °F - 46.0 °F 60% 30.03 in 10.0 mi SSE 12.7 mph 21.9 mph N/A   Clear
8:53 PM 57.9 °F - 45.0 °F 62% 30.02 in 10.0 mi SSE 15.0 mph 21.9 mph N/A   Clear
9:53 PM 55.9 °F - 45.0 °F 67% 30.01 in 10.0 mi South 11.5 mph - N/A   Clear
10:53 PM 55.9 °F - 45.0 °F 67% 30.00 in 10.0 mi South 11.5 mph 19.6 mph N/A   Clear
11:53 PM 55.9 °F - 46.0 °F 69% 29.98 in 10.0 mi South 12.7 mph 21.9 mph N/A   Clear